Tracking 18942 objects as of 16-Jan-2018
HD Live streaming from Space Station
objects crossing your sky now

DMSP 5D-2 F15 DEB

Track DMSP 5D-2 F15 DEB now!
10-day predictions


NORAD ID: 26146
Int'l Code: 1999-067D
Perigee: 654.4 km
Apogee: 662.2 km
Inclination: 98.8 °
Period: 97.8 minutes
Semi major axis: 7029 km
RCS: 0.1199 m2 (medium)
Launch date: December 12, 1999
Source: United States (US)
Launch site: AIR FORCE WESTERN TEST RANGE (AFWTR)

Note: This is SATELLITE DEBRIS
aabbcc
Your satellite tracking list
Your tracking list is empty




NASA's NSSDC Master Catalog

Two Line Element Set (TLE):
1 26146U 99067D   18016.19192408  .00006502  00000-0  10179-2 0  9993
2 26146  98.8335  90.4304 0005507 270.7546  89.3028 14.73110175947320
Source of the keplerian elements: AFSPC